TimeMST,TemperatureF,Dew PointF,Humidity,Sea Level PressureIn,VisibilityMPH,Wind Direction,Wind SpeedMPH,Gust SpeedMPH,PrecipitationIn,Events,Conditions,WindDirDegrees,DateUTC
12:55 AM,21.9,10.9,63,30.01,10.0,SW,4.6,-,N/A,,Overcast,230,2013-11-04 07:55:00
1:55 AM,21.0,12.0,68,30.00,10.0,Calm,Calm,-,N/A,,Overcast,0,2013-11-04 08:55:00
2:55 AM,23.0,10.9,60,30.00,10.0,Calm,Calm,-,N/A,,Overcast,0,2013-11-04 09:55:00
3:55 AM,19.9,10.9,68,30.01,10.0,Calm,Calm,-,N/A,,Mostly Cloudy,0,2013-11-04 10:55:00
4:55 AM,19.9,10.0,65,30.01,10.0,Calm,Calm,-,N/A,,Mostly Cloudy,0,2013-11-04 11:55:00
5:55 AM,15.1,7.0,70,30.05,10.0,North,4.6,-,N/A,,Clear,350,2013-11-04 12:55:00
6:55 AM,19.0,10.0,68,30.06,10.0,Calm,Calm,-,N/A,,Overcast,0,2013-11-04 13:55:00
7:55 AM,19.9,9.0,62,30.06,10.0,Calm,Calm,-,N/A,,Overcast,0,2013-11-04 14:55:00
8:55 AM,21.0,12.0,68,30.08,10.0,Calm,Calm,-,N/A,,Partly Cloudy,0,2013-11-04 15:55:00
9:55 AM,28.0,10.9,49,30.06,10.0,Calm,Calm,-,N/A,,Clear,0,2013-11-04 16:55:00
10:55 AM,33.1,12.0,42,30.03,10.0,Variable,3.5,-,N/A,,Overcast,0,2013-11-04 17:55:00
11:55 AM,33.1,8.1,35,30.01,10.0,SSE,5.8,-,N/A,,Mostly Cloudy,160,2013-11-04 18:55:00
12:55 PM,34.0,8.1,34,30.00,10.0,SSE,4.6,-,N/A,,Overcast,160,2013-11-04 19:55:00
1:55 PM,33.1,10.0,38,30.01,10.0,South,8.1,-,N/A,,Overcast,190,2013-11-04 20:55:00
2:55 PM,32.0,15.1,50,30.01,10.0,NNE,5.8,-,N/A,,Mostly Cloudy,20,2013-11-04 21:55:00
3:55 PM,33.1,14.0,46,30.04,10.0,NNW,13.8,18.4,N/A,,Overcast,340,2013-11-04 22:55:00
4:55 PM,30.0,14.0,51,30.06,10.0,SSW,5.8,-,N/A,,Partly Cloudy,200,2013-11-04 23:55:00
5:55 PM,21.0,10.9,65,30.13,10.0,Calm,Calm,-,N/A,,Clear,0,2013-11-05 00:55:00
6:55 PM,21.0,10.9,65,30.14,10.0,Calm,Calm,-,N/A,,Scattered Clouds,0,2013-11-05 01:55:00
7:55 PM,24.1,14.0,65,30.16,10.0,Calm,Calm,-,N/A,,Overcast,0,2013-11-05 02:55:00
8:55 PM,27.0,15.1,61,30.16,10.0,WNW,4.6,-,N/A,,Overcast,300,2013-11-05 03:55:00
9:55 PM,26.1,16.0,66,30.16,10.0,Calm,Calm,-,0.00,,Overcast,0,2013-11-05 04:55:00
10:55 PM,21.0,12.9,71,30.17,10.0,Calm,Calm,-,N/A,,Clear,0,2013-11-05 05:55:00
11:55 PM,19.9,12.0,71,30.18,10.0,Calm,Calm,-,N/A,,Scattered Clouds,0,2013-11-05 06:55:00